Date String (YYYY-MM-DD hh:mm:ss) UTC,Instrument flags,Ambient pressure (hPa),Sample flow (lpm),Bypass flow (lpm),Sample temperature (°C),Ambient temperature (°C),ASC tube jacket temperature (°C),LED temperature (°C),Box temperature (°C),Sample RH (%),Span deviation,Mass concentration (μg/m³),Mass concentration (μg/m³),Mass concentration (μg/m³)
DateTimeUTC,F1_M11,P_M11,Q1_M11,Q2_M11,T1_M11,T2_M11,T3_M11,T4_M11,T5_M11,U1_M11,ZSPAN_M11,X2_M11,X0_M11,X1_M11
2023-02-01 02:00:00,,0824.5,5.01,0.00,22.9,21.2,00.0,31.8,24.7,06.2,-000.3,0016.63,0026.77,0015.41
2023-02-01 02:01:00,,0824.7,4.99,0.00,22.9,21.1,00.0,31.8,24.6,06.2,0000.0,0015.90,0025.21,0014.84
2023-02-01 02:02:00,,0824.7,4.94,0.00,22.8,21.1,00.0,31.8,24.6,06.2,-000.1,0015.24,0023.30,0014.27
2023-02-01 02:03:00,,0824.7,4.93,0.00,22.8,21.1,00.0,31.8,24.6,06.2,0000.3,0014.65,0021.83,0013.71
2023-02-01 02:04:00,,0824.8,4.97,0.00,22.8,21.0,00.0,31.8,24.5,06.3,0000.4,0014.07,0021.33,0013.16
2023-02-01 02:05:00,,0824.8,4.99,0.00,22.8,21.0,00.0,31.7,24.5,06.3,0000.8,0013.74,0020.85,0012.90
2023-02-01 02:06:00,,0824.6,5.00,0.00,22.8,21.1,00.0,31.7,24.5,06.3,0000.9,0013.58,0020.36,0012.80
2023-02-01 02:07:00,,0824.7,4.98,0.00,22.8,21.7,00.0,31.7,24.7,06.4,0000.3,0013.47,0019.94,0012.71
2023-02-01 02:08:00,,0824.8,4.98,0.00,22.9,22.6,00.0,31.7,24.9,06.4,0000.3,0013.34,0019.78,0012.60
2023-02-01 02:09:00,,0824.9,5.00,0.00,23.0,22.7,00.0,31.7,24.9,06.3,0000.5,0013.26,0019.62,0012.55
2023-02-01 02:10:00,,0824.9,4.98,0.00,23.0,22.3,00.0,31.7,24.9,06.3,0000.6,0013.13,0019.54,0012.46
2023-02-01 02:11:00,,0824.9,5.02,0.00,23.0,22.0,00.0,31.7,24.8,06.2,0000.5,0013.07,0019.50,0012.41
2023-02-01 02:12:00,,0824.8,4.98,0.00,22.9,21.8,00.0,31.8,24.7,06.2,0000.5,0013.07,0019.44,0012.40
2023-02-01 02:13:00,,0824.8,5.05,0.00,22.9,21.6,00.0,31.8,24.7,06.3,0000.5,0013.17,0019.81,0012.45
2023-02-01 02:14:00,,0824.7,4.95,0.00,22.9,21.5,00.0,31.8,24.7,06.4,0000.6,0013.30,0019.66,0012.60
2023-02-01 02:15:00,,0824.8,5.01,0.00,22.9,21.4,00.0,31.8,24.7,06.4,0000.3,0013.48,0019.55,0012.77
2023-02-01 02:16:00,,0824.8,4.98,0.00,22.8,21.3,00.0,31.8,24.6,06.4,0000.1,0013.70,0019.82,0012.98
2023-02-01 02:17:00,,0824.8,5.05,0.00,22.8,21.2,00.0,31.7,24.5,06.4,0000.1,0013.92,0020.25,0013.15
2023-02-01 02:18:00,,0824.8,5.02,0.00,22.8,21.1,00.0,31.7,24.4,06.4,0000.2,0014.13,0020.56,0013.34
2023-02-01 02:19:00,,0824.7,5.01,0.00,22.7,21.0,00.0,31.7,24.4,06.5,0000.2,0014.46,0021.02,0013.65
2023-02-01 02:20:00,,0824.7,4.97,0.00,22.7,20.9,00.0,31.7,24.3,06.5,0000.3,0014.80,0021.46,0013.99
2023-02-01 02:21:00,,0824.7,5.02,0.00,22.7,20.9,00.0,31.7,24.3,06.6,0000.3,0015.24,0022.27,0014.31
2023-02-01 02:22:00,,0824.7,4.94,0.00,22.6,20.8,00.0,31.6,24.3,06.6,0000.4,0015.64,0022.81,0014.68
2023-02-01 02:23:00,,0824.9,4.97,0.00,22.6,21.3,00.0,31.6,24.4,06.6,0000.4,0015.95,0023.32,0014.94
2023-02-01 02:24:00,,0824.9,5.01,0.00,22.7,22.1,00.0,31.6,24.7,06.6,0000.6,0016.20,0023.56,0015.18
2023-02-01 02:25:00,,0824.8,5.05,0.00,22.8,22.7,00.0,31.6,24.9,06.5,0000.3,0016.43,0023.67,0015.34
2023-02-01 02:26:00,,0824.8,4.97,0.00,22.9,22.5,00.0,31.6,24.8,06.5,0000.3,0016.70,0024.11,0015.55
2023-02-01 02:27:00,,0824.7,5.01,0.00,22.9,22.1,00.0,31.6,24.7,06.6,0000.7,0016.92,0024.73,0015.71
2023-02-01 02:28:00,,0824.8,4.99,0.00,22.8,21.8,00.0,31.7,24.6,06.6,0000.6,0017.08,0025.64,0015.89
2023-02-01 02:29:00,,0824.9,5.00,0.00,22.8,21.6,00.0,31.7,24.5,06.7,0000.7,0017.17,0026.35,0015.97
2023-02-01 02:30:00,,0824.9,5.00,0.00,22.7,21.2,00.0,31.7,24.4,06.6,0001.1,0017.14,0027.04,0015.93
2023-02-01 02:31:00,,0824.9,5.02,0.00,22.7,20.8,00.0,31.6,24.2,06.6,0000.8,0017.12,0027.43,0015.86
2023-02-01 02:32:00,,0824.8,5.00,0.00,22.6,20.7,00.0,31.6,24.2,06.6,0000.1,0017.08,0027.25,0015.82
2023-02-01 02:33:00,,0824.8,4.99,0.00,22.6,20.6,00.0,31.6,24.2,06.6,-000.1,0017.17,0027.59,0015.87
2023-02-01 02:34:00,,0824.8,5.02,0.00,22.5,20.6,00.0,31.6,24.1,06.6,-000.1,0017.30,0028.86,0015.95
2023-02-01 02:35:00,,0824.8,5.00,0.00,22.5,20.5,00.0,31.5,24.0,06.6,0000.1,0017.46,0029.76,0016.06
2023-02-01 02:36:00,,0824.8,5.00,0.00,22.4,20.7,00.0,31.5,24.1,06.6,0000.3,0017.61,0030.87,0016.17
2023-02-01 02:37:00,,0824.9,5.00,0.00,22.5,21.5,00.0,31.5,24.3,06.7,0000.2,0017.57,0031.44,0016.12
2023-02-01 02:38:00,,0824.9,5.02,0.00,22.6,22.4,00.0,31.4,24.6,06.6,0000.0,0017.53,0031.35,0016.10
2023-02-01 02:39:00,,0824.9,4.99,0.00,22.7,22.3,00.0,31.5,24.6,06.6,-000.0,0017.56,0030.63,0016.11
2023-02-01 02:40:00,,0824.9,5.00,0.00,22.6,21.8,00.0,31.5,24.4,06.7,-000.4,0017.69,0031.60,0016.17
2023-02-01 02:41:00,,0824.9,4.99,0.00,22.6,21.2,00.0,31.5,24.1,06.7,-000.6,0017.76,0032.07,0016.24
2023-02-01 02:42:00,,0824.9,5.00,0.00,22.5,20.7,00.0,31.5,24.0,06.7,-000.7,0017.83,0032.07,0016.30
2023-02-01 02:43:00,,0824.9,4.99,0.00,22.4,20.5,00.0,31.4,23.9,06.7,-000.4,0017.92,0032.42,0016.36
2023-02-01 02:44:00,,0824.9,5.00,0.00,22.3,20.4,00.0,31.4,23.9,06.8,-000.3,0017.83,0032.34,0016.30
2023-02-01 02:45:00,,0824.8,5.01,0.00,22.3,20.4,00.0,31.4,23.9,06.8,-000.4,0017.67,0031.24,0016.15
2023-02-01 02:46:00,,0824.8,5.00,0.00,22.3,20.3,00.0,31.4,23.9,06.8,-000.4,0017.40,0030.95,0015.95
2023-02-01 02:47:00,,0824.8,5.02,0.00,22.2,20.3,00.0,31.3,23.8,06.8,-000.2,0017.05,0029.72,0015.72
2023-02-01 02:48:00,,0824.9,4.98,0.00,22.2,20.9,00.0,31.3,24.0,06.8,-000.1,0016.87,0029.07,0015.59
2023-02-01 02:49:00,,0824.9,5.01,0.00,22.3,21.8,00.0,31.3,24.2,06.8,-000.1,0016.74,0029.20,0015.45
2023-02-01 02:50:00,,0824.9,5.00,0.00,22.5,22.8,00.0,31.3,24.5,06.8,-000.3,0016.58,0029.42,0015.28
2023-02-01 02:51:00,,0824.9,5.00,0.00,22.6,23.0,00.0,31.3,24.6,06.7,-000.1,0016.36,0027.68,0015.12
2023-02-01 02:52:00,,0824.9,4.99,0.00,22.6,22.5,00.0,31.3,24.5,06.7,0000.1,0016.22,0026.41,0015.02
2023-02-01 02:53:00,,0824.9,5.00,0.00,22.6,22.0,00.0,31.4,24.4,06.7,0000.1,0016.16,0026.45,0014.94
2023-02-01 02:54:00,,0824.9,4.98,0.00,22.6,21.6,00.0,31.4,24.3,06.8,0000.2,0016.00,0026.12,0014.83
2023-02-01 02:55:00,,0824.9,5.00,0.00,22.5,21.3,00.0,31.4,24.2,06.8,0000.3,0015.88,0026.94,0014.74
2023-02-01 02:56:00,,0824.9,5.01,0.00,22.5,20.9,00.0,31.4,24.1,06.8,0000.4,0015.81,0026.88,0014.70
2023-02-01 02:57:00,,0824.9,5.05,0.00,22.4,20.6,00.0,31.4,24.0,06.8,0000.3,0015.79,0026.48,0014.69
2023-02-01 02:58:00,,0824.9,4.95,0.00,22.4,20.5,00.0,31.4,24.0,06.8,0000.2,0015.83,0026.47,0014.68
2023-02-01 02:59:00,,0824.9,5.03,0.00,22.3,20.3,00.0,31.3,23.9,06.8,0000.3,0015.84,0026.97,0014.68
